owner,sensor,date,latitude,longitude,vertical_datum,wind_speed,wind_to_direction,wind_speed_of_gust,qcFlag 
ADCP,ioos:station:wmo:42370:1,2011-07-01T00:00:00Z,27.3220,-90.5360,78.7,3.8,73.0,99.0,'11111222,11111222,11144222' 
ADCP,ioos:station:wmo:42370:1,2011-07-01T00:20:00Z,27.3220,-90.5360,78.7,3.8,73.0,99.0,'11111222,11111222,11144222' 
ADCP,ioos:station:wmo:42370:1,2011-07-01T00:40:00Z,27.3220,-90.5360,78.7,4.2,70.0,99.0,'11111222,11111222,11144222' 
ADCP,ioos:station:wmo:42370:1,2011-07-01T01:00:00Z,27.3220,-90.5360,78.7,4.0,72.0,99.0,'11111222,11111222,11144222' 
ADCP,ioos:station:wmo:42370:1,2011-07-01T01:20:00Z,27.3220,-90.5360,78.7,4.0,72.0,99.0,'11111222,11111222,11144222' 
ADCP,ioos:station:wmo:42370:1,2011-07-01T01:40:00Z,27.3220,-90.5360,78.7,4.8,78.0,99.0,'11111222,11111222,11144222' 
ADCP,ioos:station:wmo:42370:1,2011-07-01T02:00:00Z,27.3220,-90.5360,78.7,4.5,84.0,99.0,'11111222,11111222,11144222' 
ADCP,ioos:station:wmo:42370:1,2011-07-01T02:20:00Z,27.3220,-90.5360,78.7,4.5,84.0,99.0,'11111222,11111222,11144222' 
ADCP,ioos:station:wmo:42370:1,2011-07-01T02:40:00Z,27.3220,-90.5360,78.7,4.2,85.0,99.0,'11111222,11111222,11144222' 
ADCP,ioos:station:wmo:42370:1,2011-07-01T03:00:00Z,27.3220,-90.5360,78.7,3.1,79.0,99.0,'11111222,11111222,11144222' 
ADCP,ioos:station:wmo:42370:1,2011-07-01T03:40:00Z,27.3220,-90.5360,78.7,3.2,71.0,99.0,'11111222,11111222,11144222' 
ADCP,ioos:station:wmo:42370:1,2011-07-01T04:00:00Z,27.3220,-90.5360,78.7,3.4,79.0,99.0,'11111222,11111222,11144222' 
ADCP,ioos:station:wmo:42370:1,2011-07-01T04:20:00Z,27.3220,-90.5360,78.7,3.4,79.0,99.0,'11111222,11111222,11144222' 
ADCP,ioos:station:wmo:42370:1,2011-07-01T04:40:00Z,27.3220,-90.5360,78.7,4.5,75.0,99.0,'11111222,11111222,11144222' 
ADCP,ioos:station:wmo:42370:1,2011-07-01T05:00:00Z,27.3220,-90.5360,78.7,5.2,82.0,99.0,'11111222,11111222,11144222' 
ADCP,ioos:station:wmo:42370:1,2011-07-01T05:20:00Z,27.3220,-90.5360,78.7,5.2,82.0,99.0,'11111222,11111222,11144222' 
ADCP,ioos:station:wmo:42370:1,2011-07-01T05:40:00Z,27.3220,-90.5360,78.7,5.2,88.0,99.0,'11111222,11111222,11144222' 
ADCP,ioos:station:wmo:42370:1,2011-07-01T06:00:00Z,27.3220,-90.5360,78.7,1.5,108.0,99.0,'11111222,11111222,11144222' 
ADCP,ioos:station:wmo:42370:1,2011-07-01T06:20:00Z,27.3220,-90.5360,78.7,1.5,108.0,99.0,'11111222,11111222,11144222' 
ADCP,ioos:station:wmo:42370:1,2011-07-01T06:40:00Z,27.3220,-90.5360,78.7,3.3,92.0,99.0,'11111222,11111222,11144222' 
ADCP,ioos:station:wmo:42370:1,2011-07-01T07:00:00Z,27.3220,-90.5360,78.7,2.6,97.0,99.0,'11111222,11111222,11144222' 
ADCP,ioos:station:wmo:42370:1,2011-07-01T07:20:00Z,27.3220,-90.5360,78.7,2.6,97.0,99.0,'11111222,11111222,11144222' 
ADCP,ioos:station:wmo:42370:1,2011-07-01T07:40:00Z,27.3220,-90.5360,78.7,4.0,89.0,99.0,'11111222,11111222,11144222' 
ADCP,ioos:station:wmo:42370:1,2011-07-01T08:00:00Z,27.3220,-90.5360,78.7,3.7,94.0,99.0,'11111222,11111222,11144222' 
ADCP,ioos:station:wmo:42370:1,2011-07-01T08:20:00Z,27.3220,-90.5360,78.7,3.7,94.0,99.0,'11111222,11111222,11144222' 
ADCP,ioos:station:wmo:42370:1,2011-07-01T08:40:00Z,27.3220,-90.5360,78.7,2.1,104.0,99.0,'11111222,11111222,11144222' 
ADCP,ioos:station:wmo:42370:1,2011-07-01T09:00:00Z,27.3220,-90.5360,78.7,2.2,104.0,99.0,'11111222,11111222,11144222' 
ADCP,ioos:station:wmo:42370:1,2011-07-01T09:20:00Z,27.3220,-90.5360,78.7,2.2,104.0,99.0,'11111222,11111222,11144222' 
ADCP,ioos:station:wmo:42370:1,2011-07-01T09:40:00Z,27.3220,-90.5360,78.7,2.1,111.0,99.0,'11111222,11111222,11144222' 
ADCP,ioos:station:wmo:42370:1,2011-07-01T10:00:00Z,27.3220,-90.5360,78.7,2.5,121.0,99.0,'11111222,11111222,11144222' 
ADCP,ioos:station:wmo:42370:1,2011-07-01T10:20:00Z,27.3220,-90.5360,78.7,2.5,121.0,99.0,'11111222,11111222,11144222' 
ADCP,ioos:station:wmo:42370:1,2011-07-01T10:40:00Z,27.3220,-90.5360,78.7,1.2,126.0,99.0,'11111222,11111222,11144222' 
ADCP,ioos:station:wmo:42370:1,2011-07-01T11:00:00Z,27.3220,-90.5360,78.7,1.5,124.0,99.0,'11111222,11111222,11144222' 
ADCP,ioos:station:wmo:42370:1,2011-07-01T11:20:00Z,27.3220,-90.5360,78.7,1.5,124.0,99.0,'11111222,11111222,11144222' 
ADCP,ioos:station:wmo:42370:1,2011-07-01T11:40:00Z,27.3220,-90.5360,78.7,2.5,92.0,99.0,'11111222,11111222,11144222' 
ADCP,ioos:station:wmo:42370:1,2011-07-01T12:00:00Z,27.3220,-90.5360,78.7,1.9,80.0,99.0,'11111222,11111222,11144222' 
ADCP,ioos:station:wmo:42370:1,2011-07-01T12:20:00Z,27.3220,-90.5360,78.7,1.9,80.0,99.0,'11111222,11111222,11144222' 
ADCP,ioos:station:wmo:42370:1,2011-07-01T12:40:00Z,27.3220,-90.5360,78.7,1.6,48.0,99.0,'11111222,11111222,11144222' 
ADCP,ioos:station:wmo:42370:1,2011-07-01T13:00:00Z,27.3220,-90.5360,78.7,2.6,35.0,99.0,'11111222,11111222,11144222' 
ADCP,ioos:station:wmo:42370:1,2011-07-01T13:20:00Z,27.3220,-90.5360,78.7,2.6,35.0,99.0,'11111222,11111222,11144222' 
ADCP,ioos:station:wmo:42370:1,2011-07-01T13:40:00Z,27.3220,-90.5360,78.7,2.2,37.0,99.0,'11111222,11111222,11144222' 
ADCP,ioos:station:wmo:42370:1,2011-07-01T14:00:00Z,27.3220,-90.5360,78.7,3.2,30.0,99.0,'11111222,11111222,11144222' 
ADCP,ioos:station:wmo:42370:1,2011-07-01T14:20:00Z,27.3220,-90.5360,78.7,3.2,30.0,99.0,'11111222,11111222,11144222' 
ADCP,ioos:station:wmo:42370:1,2011-07-01T14:40:00Z,27.3220,-90.5360,78.7,2.3,35.0,99.0,'11111222,11111222,11144222' 
ADCP,ioos:station:wmo:42370:1,2011-07-01T15:00:00Z,27.3220,-90.5360,78.7,1.8,38.0,99.0,'11111222,11111222,11144222' 
ADCP,ioos:station:wmo:42370:1,2011-07-01T15:20:00Z,27.3220,-90.5360,78.7,1.8,38.0,99.0,'11111222,11111222,11144222' 
ADCP,ioos:station:wmo:42370:1,2011-07-01T15:40:00Z,27.3220,-90.5360,78.7,1.9,34.0,99.0,'11111222,11111222,11144222' 
ADCP,ioos:station:wmo:42370:1,2011-07-01T16:00:00Z,27.3220,-90.5360,78.7,1.5,38.0,99.0,'11111222,11111222,11144222' 
ADCP,ioos:station:wmo:42370:1,2011-07-01T16:20:00Z,27.3220,-90.5360,78.7,1.5,38.0,99.0,'11111222,11111222,11144222' 
ADCP,ioos:station:wmo:42370:1,2011-07-01T16:40:00Z,27.3220,-90.5360,78.7,2.7,29.0,99.0,'11111222,11111222,11144222' 
ADCP,ioos:station:wmo:42370:1,2011-07-01T17:00:00Z,27.3220,-90.5360,78.7,2.4,38.0,99.0,'11111222,11111222,11144222' 
ADCP,ioos:station:wmo:42370:1,2011-07-01T17:20:00Z,27.3220,-90.5360,78.7,2.4,38.0,99.0,'11111222,11111222,11144222' 
ADCP,ioos:station:wmo:42370:1,2011-07-01T17:40:00Z,27.3220,-90.5360,78.7,2.0,43.0,99.0,'11111222,11111222,11144222' 
ADCP,ioos:station:wmo:42370:1,2011-07-01T18:00:00Z,27.3220,-90.5360,78.7,1.8,54.0,99.0,'11111222,11111222,11144222' 
ADCP,ioos:station:wmo:42370:1,2011-07-01T18:20:00Z,27.3220,-90.5360,78.7,1.8,54.0,99.0,'11111222,11111222,11144222' 
ADCP,ioos:station:wmo:42370:1,2011-07-01T18:40:00Z,27.3220,-90.5360,78.7,2.5,59.0,99.0,'11111222,11111222,11144222' 
ADCP,ioos:station:wmo:42370:1,2011-07-01T19:00:00Z,27.3220,-90.5360,78.7,2.7,77.0,99.0,'11111222,11111222,11144222' 
ADCP,ioos:station:wmo:42370:1,2011-07-01T19:20:00Z,27.3220,-90.5360,78.7,2.7,77.0,99.0,'11111222,11111222,11144222' 
ADCP,ioos:station:wmo:42370:1,2011-07-01T19:40:00Z,27.3220,-90.5360,78.7,1.5,117.0,99.0,'11111222,11111222,11144222' 
ADCP,ioos:station:wmo:42370:1,2011-07-01T20:00:00Z,27.3220,-90.5360,78.7,1.5,125.0,99.0,'11111222,11111222,11144222' 
ADCP,ioos:station:wmo:42370:1,2011-07-01T20:20:00Z,27.3220,-90.5360,78.7,1.5,125.0,99.0,'11111222,11111222,11144222' 
ADCP,ioos:station:wmo:42370:1,2011-07-01T20:40:00Z,27.3220,-90.5360,78.7,1.6,136.0,99.0,'11111222,11111222,11144222' 
ADCP,ioos:station:wmo:42370:1,2011-07-01T21:00:00Z,27.3220,-90.5360,78.7,1.2,135.0,99.0,'11111222,11111222,11144222' 
ADCP,ioos:station:wmo:42370:1,2011-07-01T21:20:00Z,27.3220,-90.5360,78.7,1.2,135.0,99.0,'11111222,11111222,11144222' 
ADCP,ioos:station:wmo:42370:1,2011-07-01T22:00:00Z,27.3220,-90.5360,78.7,0.9,84.0,99.0,'11111222,11111222,11144222' 
ADCP,ioos:station:wmo:42370:1,2011-07-01T22:20:00Z,27.3220,-90.5360,78.7,0.9,84.0,99.0,'11111222,11111222,11144222' 
ADCP,ioos:station:wmo:42370:1,2011-07-01T23:00:00Z,27.3220,-90.5360,78.7,0.9,130.0,99.0,'11111222,11111222,11144222' 
ADCP,ioos:station:wmo:42370:1,2011-07-01T23:20:00Z,27.3220,-90.5360,78.7,0.9,130.0,99.0,'11111222,11111222,11144222' 
ADCP,ioos:station:wmo:42370:1,2011-07-01T23:40:00Z,27.3220,-90.5360,78.7,1.2,257.0,99.0,'11111222,11111222,11144222' 
ADCP,ioos:station:wmo:42370:1,2011-07-02T00:00:00Z,27.3220,-90.5360,78.7,1.1,311.0,99.0,'11111222,11111222,11144222' 
ADCP,ioos:station:wmo:42370:1,2011-07-02T00:20:00Z,27.3220,-90.5360,78.7,1.1,311.0,99.0,'11111222,11111222,11144222' 
ADCP,ioos:station:wmo:42370:1,2011-07-02T00:40:00Z,27.3220,-90.5360,78.7,0.4,220.0,99.0,'11111222,11111222,11144222' 
ADCP,ioos:station:wmo:42370:1,2011-07-02T01:00:00Z,27.3220,-90.5360,78.7,0.4,211.0,99.0,'11111222,11111222,11144222' 
ADCP,ioos:station:wmo:42370:1,2011-07-02T01:20:00Z,27.3220,-90.5360,78.7,0.4,211.0,99.0,'11111222,11111222,11144222' 
ADCP,ioos:station:wmo:42370:1,2011-07-02T01:40:00Z,27.3220,-90.5360,78.7,1.3,49.0,99.0,'11111222,11111222,11144222' 
ADCP,ioos:station:wmo:42370:1,2011-07-02T02:00:00Z,27.3220,-90.5360,78.7,1.0,38.0,99.0,'11111222,11111222,11144222' 
ADCP,ioos:station:wmo:42370:1,2011-07-02T02:20:00Z,27.3220,-90.5360,78.7,1.0,38.0,99.0,'11111222,11111222,11144222' 
ADCP,ioos:station:wmo:42370:1,2011-07-02T02:40:00Z,27.3220,-90.5360,78.7,0.8,112.0,99.0,'11111222,11111222,11144222' 
ADCP,ioos:station:wmo:42370:1,2011-07-02T03:00:00Z,27.3220,-90.5360,78.7,1.0,36.0,99.0,'11111222,11111222,11144222' 
ADCP,ioos:station:wmo:42370:1,2011-07-02T03:20:00Z,27.3220,-90.5360,78.7,1.0,36.0,99.0,'11111222,11111222,11144222' 
ADCP,ioos:station:wmo:42370:1,2011-07-02T03:40:00Z,27.3220,-90.5360,78.7,0.7,70.0,99.0,'11111222,11111222,11144222' 
ADCP,ioos:station:wmo:42370:1,2011-07-02T04:00:00Z,27.3220,-90.5360,78.7,0.9,63.0,99.0,'11111222,11111222,11144222' 
ADCP,ioos:station:wmo:42370:1,2011-07-02T04:20:00Z,27.3220,-90.5360,78.7,0.9,63.0,99.0,'11111222,11111222,11144222' 
ADCP,ioos:station:wmo:42370:1,2011-07-02T04:40:00Z,27.3220,-90.5360,78.7,1.0,78.0,99.0,'11111222,11111222,11144222' 
ADCP,ioos:station:wmo:42370:1,2011-07-02T05:00:00Z,27.3220,-90.5360,78.7,1.5,90.0,99.0,'11111222,11111222,11144222' 
ADCP,ioos:station:wmo:42370:1,2011-07-02T05:20:00Z,27.3220,-90.5360,78.7,1.5,90.0,99.0,'11111222,11111222,11144222' 
ADCP,ioos:station:wmo:42370:1,2011-07-02T05:40:00Z,27.3220,-90.5360,78.7,1.7,78.0,99.0,'11111222,11111222,11144222' 
ADCP,ioos:station:wmo:42370:1,2011-07-02T06:00:00Z,27.3220,-90.5360,78.7,2.0,90.0,99.0,'11111222,11111222,11144222' 
ADCP,ioos:station:wmo:42370:1,2011-07-02T06:20:00Z,27.3220,-90.5360,78.7,2.0,90.0,99.0,'11111222,11111222,11144222' 
ADCP,ioos:station:wmo:42370:1,2011-07-02T06:40:00Z,27.3220,-90.5360,78.7,2.0,80.0,99.0,'11111222,11111222,11144222' 
ADCP,ioos:station:wmo:42370:1,2011-07-02T07:00:00Z,27.3220,-90.5360,78.7,1.3,104.0,99.0,'11111222,11111222,11144222' 
ADCP,ioos:station:wmo:42370:1,2011-07-02T07:20:00Z,27.3220,-90.5360,78.7,1.3,104.0,99.0,'11111222,11111222,11144222' 
ADCP,ioos:station:wmo:42370:1,2011-07-02T07:40:00Z,27.3220,-90.5360,78.7,1.6,158.0,99.0,'11111222,11111222,11144222' 
ADCP,ioos:station:wmo:42370:1,2011-07-02T08:00:00Z,27.3220,-90.5360,78.7,1.2,170.0,99.0,'11111222,11111222,11144222' 
ADCP,ioos:station:wmo:42370:1,2011-07-02T08:20:00Z,27.3220,-90.5360,78.7,1.2,170.0,99.0,'11111222,11111222,11144222' 
ADCP,ioos:station:wmo:42370:1,2011-07-02T09:00:00Z,27.3220,-90.5360,78.7,0.6,260.0,99.0,'11111222,11111222,11144222' 
ADCP,ioos:station:wmo:42370:1,2011-07-02T09:20:00Z,27.3220,-90.5360,78.7,0.6,260.0,99.0,'11111222,11111222,11144222' 
ADCP,ioos:station:wmo:42370:1,2011-07-02T09:40:00Z,27.3220,-90.5360,78.7,1.0,292.0,99.0,'11111222,11111222,11144222' 
ADCP,ioos:station:wmo:42370:1,2011-07-02T10:00:00Z,27.3220,-90.5360,78.7,1.2,319.0,99.0,'11111222,11111222,11144222' 
ADCP,ioos:station:wmo:42370:1,2011-07-02T10:20:00Z,27.3220,-90.5360,78.7,1.2,319.0,99.0,'11111222,11111222,11144222' 
ADCP,ioos:station:wmo:42370:1,2011-07-02T10:40:00Z,27.3220,-90.5360,78.7,1.8,314.0,99.0,'11111222,11111222,11144222' 
ADCP,ioos:station:wmo:42370:1,2011-07-02T11:00:00Z,27.3220,-90.5360,78.7,2.0,308.0,99.0,'11111222,11111222,11144222' 
ADCP,ioos:station:wmo:42370:1,2011-07-02T11:40:00Z,27.3220,-90.5360,78.7,2.3,303.0,99.0,'11111222,11111222,11144222' 
ADCP,ioos:station:wmo:42370:1,2011-07-02T12:00:00Z,27.3220,-90.5360,78.7,3.0,318.0,99.0,'11111222,11111222,11144222' 
ADCP,ioos:station:wmo:42370:1,2011-07-02T12:20:00Z,27.3220,-90.5360,78.7,3.0,318.0,99.0,'11111222,11111222,11144222' 
ADCP,ioos:station:wmo:42370:1,2011-07-02T12:40:00Z,27.3220,-90.5360,78.7,2.9,153.0,99.0,'11111222,11111222,11144222' 
ADCP,ioos:station:wmo:42370:1,2011-07-02T13:00:00Z,27.3220,-90.5360,78.7,2.4,303.0,99.0,'11111222,11111222,11144222' 
ADCP,ioos:station:wmo:42370:1,2011-07-02T13:20:00Z,27.3220,-90.5360,78.7,2.4,303.0,99.0,'11111222,11111222,11144222' 
ADCP,ioos:station:wmo:42370:1,2011-07-02T13:40:00Z,27.3220,-90.5360,78.7,2.4,321.0,99.0,'11111222,11111222,11144222' 
ADCP,ioos:station:wmo:42370:1,2011-07-02T14:00:00Z,27.3220,-90.5360,78.7,3.5,326.0,99.0,'11111222,11111222,11144222' 
ADCP,ioos:station:wmo:42370:1,2011-07-02T14:20:00Z,27.3220,-90.5360,78.7,3.5,326.0,99.0,'11111222,11111222,11144222' 
ADCP,ioos:station:wmo:42370:1,2011-07-02T14:40:00Z,27.3220,-90.5360,78.7,4.0,331.0,99.0,'11111222,11111222,11144222' 
ADCP,ioos:station:wmo:42370:1,2011-07-02T15:00:00Z,27.3220,-90.5360,78.7,5.0,332.0,99.0,'11111222,11111222,11144222' 
ADCP,ioos:station:wmo:42370:1,2011-07-02T15:20:00Z,27.3220,-90.5360,78.7,5.0,332.0,99.0,'11111222,11111222,11144222' 
ADCP,ioos:station:wmo:42370:1,2011-07-02T15:40:00Z,27.3220,-90.5360,78.7,4.9,338.0,99.0,'11111222,11111222,11144222' 
ADCP,ioos:station:wmo:42370:1,2011-07-02T16:00:00Z,27.3220,-90.5360,78.7,4.9,343.0,99.0,'11111222,11111222,11144222' 
ADCP,ioos:station:wmo:42370:1,2011-07-02T16:20:00Z,27.3220,-90.5360,78.7,4.9,343.0,99.0,'11111222,11111222,11144222' 
ADCP,ioos:station:wmo:42370:1,2011-07-02T16:40:00Z,27.3220,-90.5360,78.7,4.5,339.0,99.0,'11111222,11111222,11144222' 
ADCP,ioos:station:wmo:42370:1,2011-07-02T17:00:00Z,27.3220,-90.5360,78.7,4.4,342.0,99.0,'11111222,11111222,11144222' 
ADCP,ioos:station:wmo:42370:1,2011-07-02T17:20:00Z,27.3220,-90.5360,78.7,4.4,342.0,99.0,'11111222,11111222,11144222' 
ADCP,ioos:station:wmo:42370:1,2011-07-02T17:40:00Z,27.3220,-90.5360,78.7,3.8,311.0,99.0,'11111222,11111222,11144222' 
ADCP,ioos:station:wmo:42370:1,2011-07-02T18:00:00Z,27.3220,-90.5360,78.7,3.5,306.0,99.0,'11111222,11111222,11144222' 
ADCP,ioos:station:wmo:42370:1,2011-07-02T18:20:00Z,27.3220,-90.5360,78.7,3.5,306.0,99.0,'11111222,11111222,11144222' 
ADCP,ioos:station:wmo:42370:1,2011-07-02T18:40:00Z,27.3220,-90.5360,78.7,3.2,309.0,99.0,'11111222,11111222,11144222' 
ADCP,ioos:station:wmo:42370:1,2011-07-02T19:00:00Z,27.3220,-90.5360,78.7,3.4,314.0,99.0,'11111222,11111222,11144222' 
ADCP,ioos:station:wmo:42370:1,2011-07-02T19:20:00Z,27.3220,-90.5360,78.7,3.4,314.0,99.0,'11111222,11111222,11144222' 
ADCP,ioos:station:wmo:42370:1,2011-07-02T19:40:00Z,27.3220,-90.5360,78.7,3.0,63.0,99.0,'11111222,11111222,11144222' 
ADCP,ioos:station:wmo:42370:1,2011-07-02T20:00:00Z,27.3220,-90.5360,78.7,2.9,35.0,99.0,'11111222,11111222,11144222' 
ADCP,ioos:station:wmo:42370:1,2011-07-02T20:20:00Z,27.3220,-90.5360,78.7,2.9,35.0,99.0,'11111222,11111222,11144222' 
ADCP,ioos:station:wmo:42370:1,2011-07-02T20:40:00Z,27.3220,-90.5360,78.7,2.4,69.0,99.0,'11111222,11111222,11144222' 
ADCP,ioos:station:wmo:42370:1,2011-07-02T21:00:00Z,27.3220,-90.5360,78.7,2.3,103.0,99.0,'11111222,11111222,11144222' 
ADCP,ioos:station:wmo:42370:1,2011-07-02T21:20:00Z,27.3220,-90.5360,78.7,2.3,103.0,99.0,'11111222,11111222,11144222' 
ADCP,ioos:station:wmo:42370:1,2011-07-02T21:40:00Z,27.3220,-90.5360,78.7,2.0,98.0,99.0,'11111222,11111222,11144222' 
ADCP,ioos:station:wmo:42370:1,2011-07-02T22:00:00Z,27.3220,-90.5360,78.7,1.6,163.0,99.0,'11111222,11111222,11144222' 
ADCP,ioos:station:wmo:42370:1,2011-07-02T22:20:00Z,27.3220,-90.5360,78.7,1.6,163.0,99.0,'11111222,11111222,11144222' 
ADCP,ioos:station:wmo:42370:1,2011-07-02T23:00:00Z,27.3220,-90.5360,78.7,1.4,137.0,99.0,'11111222,11111222,11144222' 
ADCP,ioos:station:wmo:42370:1,2011-07-02T23:20:00Z,27.3220,-90.5360,78.7,1.4,137.0,99.0,'11111222,11111222,11144222' 
ADCP,ioos:station:wmo:42370:1,2011-07-02T23:40:00Z,27.3220,-90.5360,78.7,0.9,297.0,99.0,'11111222,11111222,11144222' 
ADCP,ioos:station:wmo:42370:1,2011-07-03T00:00:00Z,27.3220,-90.5360,78.7,1.0,288.0,99.0,'11111222,11111222,11144222' 
ADCP,ioos:station:wmo:42370:1,2011-07-03T00:20:00Z,27.3220,-90.5360,78.7,1.0,288.0,99.0,'11111222,11111222,11144222' 
ADCP,ioos:station:wmo:42370:1,2011-07-03T00:40:00Z,27.3220,-90.5360,78.7,1.9,321.0,99.0,'11111222,11111222,11144222' 
ADCP,ioos:station:wmo:42370:1,2011-07-03T01:00:00Z,27.3220,-90.5360,78.7,2.1,326.0,99.0,'11111222,11111222,11144222' 
ADCP,ioos:station:wmo:42370:1,2011-07-03T01:20:00Z,27.3220,-90.5360,78.7,2.1,326.0,99.0,'11111222,11111222,11144222' 
ADCP,ioos:station:wmo:42370:1,2011-07-03T01:40:00Z,27.3220,-90.5360,78.7,2.1,334.0,99.0,'11111222,11111222,11144222' 
ADCP,ioos:station:wmo:42370:1,2011-07-03T02:00:00Z,27.3220,-90.5360,78.7,2.2,332.0,99.0,'11111222,11111222,11144222' 
ADCP,ioos:station:wmo:42370:1,2011-07-03T02:20:00Z,27.3220,-90.5360,78.7,2.2,332.0,99.0,'11111222,11111222,11144222' 
ADCP,ioos:station:wmo:42370:1,2011-07-03T02:40:00Z,27.3220,-90.5360,78.7,1.6,232.0,99.0,'11111222,11111222,11144222' 
ADCP,ioos:station:wmo:42370:1,2011-07-03T03:00:00Z,27.3220,-90.5360,78.7,1.9,246.0,99.0,'11111222,11111222,11144222' 
ADCP,ioos:station:wmo:42370:1,2011-07-03T03:20:00Z,27.3220,-90.5360,78.7,1.9,246.0,99.0,'11111222,11111222,11144222' 
ADCP,ioos:station:wmo:42370:1,2011-07-03T03:40:00Z,27.3220,-90.5360,78.7,2.1,132.0,99.0,'11111222,11111222,11144222' 
ADCP,ioos:station:wmo:42370:1,2011-07-03T04:00:00Z,27.3220,-90.5360,78.7,1.4,116.0,99.0,'11111222,11111222,11144222' 
ADCP,ioos:station:wmo:42370:1,2011-07-03T05:00:00Z,27.3220,-90.5360,78.7,1.5,259.0,99.0,'11111222,11111222,11144222' 
ADCP,ioos:station:wmo:42370:1,2011-07-03T05:20:00Z,27.3220,-90.5360,78.7,1.5,259.0,99.0,'11111222,11111222,11144222' 
ADCP,ioos:station:wmo:42370:1,2011-07-03T05:40:00Z,27.3220,-90.5360,78.7,1.0,75.0,99.0,'11111222,11111222,11144222' 
ADCP,ioos:station:wmo:42370:1,2011-07-03T06:00:00Z,27.3220,-90.5360,78.7,1.1,247.0,99.0,'11111222,11111222,11144222' 
ADCP,ioos:station:wmo:42370:1,2011-07-03T06:20:00Z,27.3220,-90.5360,78.7,1.1,247.0,99.0,'11111222,11111222,11144222' 
ADCP,ioos:station:wmo:42370:1,2011-07-03T06:40:00Z,27.3220,-90.5360,78.7,1.1,329.0,99.0,'11111222,11111222,11144222' 
ADCP,ioos:station:wmo:42370:1,2011-07-03T07:00:00Z,27.3220,-90.5360,78.7,1.9,276.0,99.0,'11111222,11111222,11144222' 
ADCP,ioos:station:wmo:42370:1,2011-07-03T07:20:00Z,27.3220,-90.5360,78.7,1.9,276.0,99.0,'11111222,11111222,11144222' 
ADCP,ioos:station:wmo:42370:1,2011-07-03T07:40:00Z,27.3220,-90.5360,78.7,2.2,302.0,99.0,'11111222,11111222,11144222' 
ADCP,ioos:station:wmo:42370:1,2011-07-03T08:00:00Z,27.3220,-90.5360,78.7,2.5,320.0,99.0,'11111222,11111222,11144222' 
ADCP,ioos:station:wmo:42370:1,2011-07-03T08:20:00Z,27.3220,-90.5360,78.7,2.5,320.0,99.0,'11111222,11111222,11144222' 
ADCP,ioos:station:wmo:42370:1,2011-07-03T08:40:00Z,27.3220,-90.5360,78.7,2.4,307.0,99.0,'11111222,11111222,11144222' 
ADCP,ioos:station:wmo:42370:1,2011-07-03T09:00:00Z,27.3220,-90.5360,78.7,2.8,306.0,99.0,'11111222,11111222,11144222' 
ADCP,ioos:station:wmo:42370:1,2011-07-03T09:20:00Z,27.3220,-90.5360,78.7,2.8,306.0,99.0,'11111222,11111222,11144222' 
ADCP,ioos:station:wmo:42370:1,2011-07-03T09:40:00Z,27.3220,-90.5360,78.7,3.7,300.0,99.0,'11111222,11111222,11144222' 
ADCP,ioos:station:wmo:42370:1,2011-07-03T10:00:00Z,27.3220,-90.5360,78.7,4.0,298.0,99.0,'11111222,11111222,11144222' 
ADCP,ioos:station:wmo:42370:1,2011-07-03T10:20:00Z,27.3220,-90.5360,78.7,4.0,298.0,99.0,'11111222,11111222,11144222' 
ADCP,ioos:station:wmo:42370:1,2011-07-03T10:40:00Z,27.3220,-90.5360,78.7,4.6,317.0,99.0,'11111222,11111222,11144222' 
ADCP,ioos:station:wmo:42370:1,2011-07-03T11:00:00Z,27.3220,-90.5360,78.7,4.7,312.0,99.0,'11111222,11111222,11144222' 
ADCP,ioos:station:wmo:42370:1,2011-07-03T11:20:00Z,27.3220,-90.5360,78.7,4.7,312.0,99.0,'11111222,11111222,11144222' 
ADCP,ioos:station:wmo:42370:1,2011-07-03T11:40:00Z,27.3220,-90.5360,78.7,4.3,327.0,99.0,'11111222,11111222,11144222' 
ADCP,ioos:station:wmo:42370:1,2011-07-03T12:00:00Z,27.3220,-90.5360,78.7,5.3,337.0,99.0,'11111222,11111222,11144222' 
ADCP,ioos:station:wmo:42370:1,2011-07-03T12:20:00Z,27.3220,-90.5360,78.7,5.3,337.0,99.0,'11111222,11111222,11144222' 
ADCP,ioos:station:wmo:42370:1,2011-07-03T12:40:00Z,27.3220,-90.5360,78.7,4.6,327.0,99.0,'11111222,11111222,11144222' 
ADCP,ioos:station:wmo:42370:1,2011-07-03T13:00:00Z,27.3220,-90.5360,78.7,4.2,326.0,99.0,'11111222,11111222,11144222' 
ADCP,ioos:station:wmo:42370:1,2011-07-03T13:20:00Z,27.3220,-90.5360,78.7,4.2,326.0,99.0,'11111222,11111222,11144222' 
ADCP,ioos:station:wmo:42370:1,2011-07-03T13:40:00Z,27.3220,-90.5360,78.7,5.3,334.0,99.0,'11111222,11111222,11144222' 
ADCP,ioos:station:wmo:42370:1,2011-07-03T14:00:00Z,27.3220,-90.5360,78.7,5.6,343.0,99.0,'11111222,11111222,11144222' 
ADCP,ioos:station:wmo:42370:1,2011-07-03T14:20:00Z,27.3220,-90.5360,78.7,5.6,343.0,99.0,'11111222,11111222,11144222' 
ADCP,ioos:station:wmo:42370:1,2011-07-03T14:40:00Z,27.3220,-90.5360,78.7,5.9,346.0,99.0,'11111222,11111222,11144222' 
ADCP,ioos:station:wmo:42370:1,2011-07-03T15:00:00Z,27.3220,-90.5360,78.7,5.5,345.0,99.0,'11111222,11111222,11144222' 
ADCP,ioos:station:wmo:42370:1,2011-07-03T15:20:00Z,27.3220,-90.5360,78.7,5.5,345.0,99.0,'11111222,11111222,11144222' 
ADCP,ioos:station:wmo:42370:1,2011-07-03T15:40:00Z,27.3220,-90.5360,78.7,5.6,331.0,99.0,'11111222,11111222,11144222' 
ADCP,ioos:station:wmo:42370:1,2011-07-03T16:00:00Z,27.3220,-90.5360,78.7,5.4,340.0,99.0,'11111222,11111222,11144222' 
ADCP,ioos:station:wmo:42370:1,2011-07-03T16:20:00Z,27.3220,-90.5360,78.7,5.4,340.0,99.0,'11111222,11111222,11144222' 
ADCP,ioos:station:wmo:42370:1,2011-07-03T16:40:00Z,27.3220,-90.5360,78.7,5.3,290.0,99.0,'11111222,11111222,11144222' 
ADCP,ioos:station:wmo:42370:1,2011-07-03T17:00:00Z,27.3220,-90.5360,78.7,5.1,268.0,99.0,'11111222,11111222,11144222' 
ADCP,ioos:station:wmo:42370:1,2011-07-03T17:20:00Z,27.3220,-90.5360,78.7,5.1,268.0,99.0,'11111222,11111222,11144222' 
ADCP,ioos:station:wmo:42370:1,2011-07-03T17:40:00Z,27.3220,-90.5360,78.7,5.7,320.0,99.0,'11111222,11111222,11144222' 
ADCP,ioos:station:wmo:42370:1,2011-07-03T18:00:00Z,27.3220,-90.5360,78.7,5.9,225.0,99.0,'11111222,11111222,11144222' 
ADCP,ioos:station:wmo:42370:1,2011-07-03T18:20:00Z,27.3220,-90.5360,78.7,5.9,225.0,99.0,'11111222,11111222,11144222' 
ADCP,ioos:station:wmo:42370:1,2011-07-03T18:40:00Z,27.3220,-90.5360,78.7,5.1,49.0,99.0,'11111222,11111222,11144222' 
ADCP,ioos:station:wmo:42370:1,2011-07-03T19:00:00Z,27.3220,-90.5360,78.7,4.8,20.0,99.0,'11111222,11111222,11144222' 
ADCP,ioos:station:wmo:42370:1,2011-07-03T19:20:00Z,27.3220,-90.5360,78.7,4.8,20.0,99.0,'11111222,11111222,11144222' 
ADCP,ioos:station:wmo:42370:1,2011-07-03T19:40:00Z,27.3220,-90.5360,78.7,4.2,31.0,99.0,'11111222,11111222,11144222' 
ADCP,ioos:station:wmo:42370:1,2011-07-03T20:00:00Z,27.3220,-90.5360,78.7,5.0,24.0,99.0,'11111222,11111222,11144222' 
ADCP,ioos:station:wmo:42370:1,2011-07-03T20:20:00Z,27.3220,-90.5360,78.7,5.0,24.0,99.0,'11111222,11111222,11144222' 
ADCP,ioos:station:wmo:42370:1,2011-07-03T20:40:00Z,27.3220,-90.5360,78.7,5.0,26.0,99.0,'11111222,11111222,11144222' 
ADCP,ioos:station:wmo:42370:1,2011-07-03T21:00:00Z,27.3220,-90.5360,78.7,4.9,28.0,99.0,'11111222,11111222,11144222' 
ADCP,ioos:station:wmo:42370:1,2011-07-03T21:20:00Z,27.3220,-90.5360,78.7,4.9,28.0,99.0,'11111222,11111222,11144222' 
ADCP,ioos:station:wmo:42370:1,2011-07-03T22:00:00Z,27.3220,-90.5360,78.7,4.6,29.0,99.0,'11111222,11111222,11144222' 
ADCP,ioos:station:wmo:42370:1,2011-07-03T22:20:00Z,27.3220,-90.5360,78.7,4.6,29.0,99.0,'11111222,11111222,11144222' 